Location: Hopkins Observatory
(42.6965°N, 73.1843°W)
Time: 04:24:24
(UTC-04:00)

UOSAT-12 - Visible Passes

Search period start: 04 July 2015 00:00
Search period end: 14 July 2015 00:00
Orbit: 599 x 656 km, 64.6° (Epoch: 03 July)

Date Brightness Start Highest point End Pass type
(mag) Time Alt. Az. Time Alt. Az. Time Alt. Az.
04 Jul 10.2 01:19:02 10° N 01:20:48 12° NNE 01:22:41 10° NE visible
04 Jul 7.7 02:57:23 10° NNW 03:01:59 59° NE 03:06:29 10° SE visible
04 Jul 8.6 04:38:42 10° WNW 04:41:41 17° WSW 04:44:29 10° SSW visible
05 Jul 9.7 01:38:05 10° N 01:41:28 20° NE 01:44:53 10° E visible
05 Jul 7.0 03:17:28 10° NW 03:22:05 66° WSW 03:26:34 10° SSE visible
06 Jul 8.6 01:57:40 10° NNW 02:01:56 35° NE 02:06:08 10° ESE visible
06 Jul 7.9 03:37:57 10° NW 03:42:00 30° WSW 03:43:47 22° SSW visible
07 Jul 10.0 00:38:53 10° N 00:41:08 13° NNE 00:43:30 10° ENE visible
07 Jul 7.3 02:17:33 10° NNW 02:22:11 70° NE 02:24:25 29° SE visible
07 Jul 8.9 03:59:22 10° WNW 04:01:38 14° WSW 04:01:38 14° WSW visible
08 Jul 9.3 00:58:07 10° N 01:01:45 22° NE 01:05:24 10° E visible
08 Jul 7.1 02:37:42 10° NW 02:42:14 55° WSW 02:42:40 52° SW visible
09 Jul 8.2 01:17:47 10° NNW 01:22:10 40° NE 01:23:55 28° E visible
09 Jul 8.5 02:58:19 10° WNW 03:01:10 23° W 03:01:10 23° W visible
09 Jul 9.7 23:58:48 10° N 00:01:27 15° NE 00:04:11 10° ENE visible
10 Jul 7.0 01:37:43 10° NNW 01:42:22 83° NE 01:42:35 79° ESE visible
11 Jul 9.0 00:18:10 10° NNW 00:22:02 25° NE 00:24:09 18° E visible
11 Jul 7.9 01:57:57 10° NW 02:01:25 39° W 02:01:25 39° W visible
11 Jul 10.0 23:00:18 10° NNE 23:01:02 10° NNE 23:01:55 10° NE visible
12 Jul 7.8 00:37:54 10° NNW 00:42:23 47° NE 00:43:04 44° ENE visible
12 Jul 9.1 02:18:44 10° WNW 02:20:19 17° W 02:20:19 17° W visible
12 Jul 9.5 23:18:45 10° N 23:21:45 17° NE 23:24:47 10° ENE visible
13 Jul 7.2 00:57:54 10° NW 01:02:04 71° NW 01:02:04 71° NW visible
13 Jul 8.7 23:38:14 10° NNW 23:42:17 29° NE 23:43:52 24° E visible
